• In Czech Republic
  • List of Countries
  • For 7 days
  • Water Temperature
  • Satellite Maps
  • Weather Map
  • Weather Widgets
  • user-avatar
    Login

    Hourly Weather Hobart

    Today, 19 August, Saturday

    Time Temperature Precipitation Wind Pressure Humidity
    00:00 -1°C° 0.1 mm 5 mps 748 mmHg 95%
    01:00 -1°C° 0.1 mm 5 mps 749 mmHg 96%
    02:00 -1°C° 0.1 mm 4 mps 749 mmHg 96%
    03:00 -1°C° 0.1 mm 4 mps 750 mmHg 96%
    04:00 -1°C° 0 mm 4 mps 750 mmHg 95%
    05:00 -1°C° 0.1 mm 4 mps 751 mmHg 96%
    06:00 -2°C° 0.1 mm 4 mps 751 mmHg 96%
    07:00 -2°C° 0.1 mm 4 mps 751 mmHg 96%
    08:00 +1°C° 0.1 mm 4 mps 752 mmHg 86%
    09:00 +3°C° 0.1 mm 5 mps 752 mmHg 76%
    10:00 +6°C° 0.1 mm 5 mps 752 mmHg 65%
    11:00 +7°C° 0.1 mm 5 mps 752 mmHg 62%
    12:00 +7°C° 0.1 mm 5 mps 752 mmHg 58%
    13:00 +8°C° 0.1 mm 6 mps 752 mmHg 55%
    14:00 +8°C° 0.1 mm 6 mps 752 mmHg 59%
    15:00 +7°C° 0.1 mm 5 mps 752 mmHg 62%
    16:00 +7°C° 0.1 mm 5 mps 753 mmHg 66%
    17:00 +5°C° 0 mm 5 mps 753 mmHg 74%
    18:00 +3°C° 0 mm 4 mps 753 mmHg 83%
    19:00 +1°C° 0 mm 4 mps 753 mmHg 91%
    20:00 0°C° 0 mm 4 mps 753 mmHg 93%
    21:00 +1°C° 0 mm 3 mps 754 mmHg 94%
    22:00 0°C° 0 mm 3 mps 754 mmHg 96%
    23:00 0°C° 0 mm 3 mps 754 mmHg 95%

    Tomorrow, 20 August, Sunday

    Time Temperature Precipitation Wind Pressure Humidity
    00:00 0°C° 0 mm 3 mps 753 mmHg 95%
    01:00 0°C° 0 mm 3 mps 753 mmHg 94%
    02:00 0°C° 0 mm 3 mps 753 mmHg 93%
    03:00 0°C° 0 mm 3 mps 753 mmHg 93%
    04:00 0°C° 0 mm 3 mps 753 mmHg 92%
    05:00 0°C° 0 mm 3 mps 753 mmHg 92%
    06:00 0°C° 0 mm 3 mps 753 mmHg 92%
    07:00 +1°C° 0 mm 3 mps 752 mmHg 92%
    08:00 +3°C° 0 mm 3 mps 752 mmHg 83%
    09:00 +7°C° 0 mm 3 mps 752 mmHg 75%
    10:00 +9°C° 0 mm 3 mps 752 mmHg 67%
    11:00 +10°C° 0 mm 3 mps 752 mmHg 64%
    12:00 +10°C° 0 mm 3 mps 751 mmHg 61%
    13:00 +12°C° 0 mm 2 mps 751 mmHg 57%
    14:00 +12°C° 0 mm 2 mps 751 mmHg 59%
    15:00 +10°C° 0 mm 2 mps 750 mmHg 61%
    16:00 +10°C° 0 mm 2 mps 750 mmHg 63%
    17:00 +8°C° 0 mm 2 mps 750 mmHg 73%
    18:00 +6°C° 0 mm 2 mps 750 mmHg 83%
    19:00 +4°C° 0 mm 2 mps 750 mmHg 93%
    20:00 +3°C° 0 mm 2 mps 750 mmHg 94%
    21:00 +2°C° 0 mm 2 mps 750 mmHg 95%
    22:00 +2°C° 0 mm 2 mps 750 mmHg 96%
    23:00 +2°C° 0 mm 2 mps 750 mmHg 96%

    Day after tomorrow, 21 August, Monday

    Time Temperature Precipitation Wind Pressure Humidity
    00:00 +2°C° 0 mm 2 mps 749 mmHg 95%
    01:00 +1°C° 0 mm 2 mps 749 mmHg 95%
    02:00 +1°C° 0 mm 2 mps 749 mmHg 95%
    03:00 +1°C° 0 mm 2 mps 749 mmHg 95%
    04:00 +1°C° 0 mm 2 mps 748 mmHg 95%
    05:00 +1°C° 0 mm 2 mps 748 mmHg 94%
    06:00 +1°C° 0 mm 2 mps 748 mmHg 94%
    07:00 +2°C° 0 mm 1 mps 748 mmHg 93%
    08:00 +4°C° 0 mm 1 mps 748 mmHg 82%
    09:00 +7°C° 0 mm 1 mps 748 mmHg 71%
    10:00 +9°C° 0 mm 1 mps 748 mmHg 61%
    11:00 +11°C° 0 mm 1 mps 747 mmHg 55%
    12:00 +13°C° 0 mm 1 mps 747 mmHg 50%
    13:00 +14°C° 0 mm 1 mps 746 mmHg 44%
    14:00 +14°C° 0 mm 1 mps 746 mmHg 48%
    15:00 +13°C° 0 mm 1 mps 746 mmHg 52%
    16:00 +12°C° 0 mm 1 mps 746 mmHg 55%
    17:00 +11°C° 0 mm 1 mps 746 mmHg 63%
    18:00 +9°C° 0 mm 1 mps 746 mmHg 70%
    19:00 +7°C° 0 mm 2 mps 746 mmHg 78%
    20:00 +6°C° 0 mm 2 mps 746 mmHg 82%
    21:00 +5°C° 0 mm 2 mps 746 mmHg 86%
    22:00 +4°C° 0 mm 2 mps 746 mmHg 90%
    23:00 +4°C° 0 mm 2 mps 746 mmHg 91%

    22 August, Tuesday

    Time Temperature Precipitation Wind Pressure Humidity
    00:00 +2°C° 0 mm 3 mps 746 mmHg 93%
    01:00 +2°C° 0 mm 3 mps 745 mmHg 94%
    02:00 +2°C° 0 mm 3 mps 745 mmHg 94%
    03:00 +2°C° 0 mm 3 mps 745 mmHg 94%
    04:00 +2°C° 0 mm 3 mps 744 mmHg 94%
    05:00 +2°C° 0 mm 3 mps 744 mmHg 94%
    06:00 +2°C° 0 mm 3 mps 744 mmHg 94%
    07:00 +2°C° 0 mm 3 mps 744 mmHg 94%
    08:00 +5°C° 0 mm 3 mps 744 mmHg 85%
    09:00 +8°C° 0 mm 3 mps 744 mmHg 76%
    10:00 +11°C° 0 mm 4 mps 744 mmHg 68%
    11:00 +11°C° 0.1 mm 4 mps 744 mmHg 69%
    12:00 +12°C° 0.1 mm 4 mps 744 mmHg 70%
    13:00 +12°C° 0.1 mm 4 mps 744 mmHg 71%
    14:00 +11°C° 0.2 mm 4 mps 744 mmHg 74%
    15:00 +11°C° 0.2 mm 3 mps 744 mmHg 78%
    16:00 +10°C° 0.2 mm 3 mps 744 mmHg 81%
    17:00 +9°C° 0.1 mm 3 mps 745 mmHg 86%
    18:00 +8°C° 0.1 mm 2 mps 746 mmHg 90%
    19:00 +6°C° 0.1 mm 2 mps 746 mmHg 95%
    20:00 +6°C° 0.1 mm 2 mps 747 mmHg 96%
    21:00 +5°C° 0.1 mm 2 mps 747 mmHg 96%
    22:00 +6°C° 0.1 mm 1 mps 748 mmHg 97%
    23:00 +5°C° 0 mm 1 mps 748 mmHg 97%

    23 August, Wednesday

    Time Temperature Precipitation Wind Pressure Humidity
    00:00 +5°C° 0 mm 1 mps 748 mmHg 97%
    01:00 +4°C° 0 mm 1 mps 748 mmHg 97%
    02:00 +4°C° 0 mm 1 mps 748 mmHg 97%
    03:00 +4°C° 0 mm 1 mps 748 mmHg 96%
    04:00 +2°C° 0 mm 2 mps 748 mmHg 96%
    05:00 +3°C° 0 mm 2 mps 748 mmHg 96%
    06:00 +3°C° 0 mm 2 mps 748 mmHg 96%
    07:00 +3°C° 0 mm 2 mps 749 mmHg 95%
    08:00 +5°C° 0.1 mm 1 mps 749 mmHg 90%
    09:00 +7°C° 0.1 mm 1 mps 749 mmHg 84%
    10:00 +9°C° 0.1 mm 1 mps 749 mmHg 78%
    11:00 +10°C° 0.3 mm 1 mps 748 mmHg 77%
    12:00 +9°C° 0.3 mm 2 mps 748 mmHg 76%
    13:00 +10°C° 0.3 mm 2 mps 748 mmHg 75%
    14:00 +9°C° 0.4 mm 2 mps 748 mmHg 75%
    15:00 +9°C° 0.4 mm 3 mps 749 mmHg 75%
    16:00 +9°C° 0.4 mm 3 mps 749 mmHg 74%
    17:00 +7°C° 0 mm 3 mps 750 mmHg 81%
    18:00 +4°C° 0 mm 3 mps 750 mmHg 87%
    19:00 +2°C° 0 mm 3 mps 751 mmHg 94%
    20:00 +2°C° 0 mm 3 mps 751 mmHg 94%
    21:00 +1°C° 0 mm 3 mps 752 mmHg 95%
    22:00 +1°C° 0 mm 3 mps 752 mmHg 95%
    23:00 +1°C° 0 mm 3 mps 752 mmHg 95%

    24 August, Thursday

    Time Temperature Precipitation Wind Pressure Humidity
    00:00 +2°C° 0 mm 3 mps 752 mmHg 95%
    01:00 +2°C° 0 mm 3 mps 752 mmHg 95%
    02:00 +3°C° 0 mm 3 mps 752 mmHg 94%
    03:00 +3°C° 0 mm 3 mps 752 mmHg 93%
    04:00 +4°C° 0 mm 3 mps 752 mmHg 92%
    05:00 +4°C° 0 mm 3 mps 752 mmHg 94%
    06:00 +3°C° 0 mm 3 mps 752 mmHg 95%
    07:00 +2°C° 0 mm 3 mps 753 mmHg 97%
    08:00 +5°C° 0 mm 3 mps 753 mmHg 88%
    09:00 +8°C° 0 mm 3 mps 753 mmHg 79%
    10:00 +10°C° 0 mm 3 mps 753 mmHg 70%
    11:00 +11°C° 0 mm 3 mps 753 mmHg 64%
    12:00 +13°C° 0 mm 2 mps 753 mmHg 58%
    13:00 +14°C° 0 mm 2 mps 752 mmHg 53%
    14:00 +14°C° 0 mm 2 mps 752 mmHg 55%
    15:00 +13°C° 0 mm 2 mps 752 mmHg 57%
    16:00 +12°C° 0 mm 3 mps 752 mmHg 59%
    17:00 +10°C° 0 mm 3 mps 752 mmHg 69%
    18:00 +8°C° 0 mm 3 mps 753 mmHg 80%
    19:00 +5°C° 0 mm 3 mps 753 mmHg 90%
    20:00 +5°C° 0 mm 3 mps 753 mmHg 91%
    21:00 +4°C° 0 mm 3 mps 753 mmHg 92%
    22:00 +4°C° 0 mm 3 mps 753 mmHg 92%
    23:00 +4°C° 0 mm 3 mps 753 mmHg 92%
    Show more